North Adams, MA

9:26 PM EST on December 09, 2016 (GMT -0500)
Harriman And West

Weather History for KAQW - November, 2012

Change the Weather History Date:

Thursday, November 22, 2012

  Actual Average Record
Temperature  
Mean Temperature 38 °F -  
Max Temperature 55 °F 44 °F 66 °F (1999)
Min Temperature 21 °F 28 °F 14 °F (2014)
Degree Days  
Heating Degree Days 27    
Moisture  
Dew Point 24 °F    
Average Humidity 71    
Maximum Humidity 88    
Minimum Humidity 30    
Precipitation  
Precipitation 0.00 in - - ()
Sea Level Pressure  
Sea Level Pressure 30.23 in    
Wind  
Wind Speed 0 mph (ESE)    
Max Wind Speed 7 mph    
Max Gust Speed -    
Visibility 10 miles    
Events      
Averages and records for this station are not official NWS values.
T = Trace of Precipitation, MM = Missing Value Source: NWS Daily Summary

Daily Weather History Graph

Daily Weather History Graph

Search for Another Location

Airport or City:

Trip Planner

Search our weather history database for the weather conditions in past years. The results will help you decide how hot, cold, wet, or windy it might be!

Date:

Astronomy

Nov. 22, 2012 Rise Set
Actual Time 6:53 AM EST 4:24 PM EST
Civil Twilight 6:22 AM EST 4:55 PM EST
Nautical Twilight 5:47 AM EST 5:29 PM EST
Astronomical Twilight 5:14 AM EST 6:03 PM EST
Moon 1:14 PM EST (11/22) 1:03 AM EST (11/22)
Length of Visible Light 10h 32m
Length of Day
9h 30m
Waxing Gibbous, 71% of the Moon is Illuminated
Nov 22
Waxing Gibbous
Nov 28
Full
Dec 6
Last Quarter
Dec 13
New
Dec 20
First Quarter

Hourly Weather History & Observations

Time (EST) Temp. Windchill Dew Point Humidity Pressure Visibility Wind Dir Wind Speed Gust Speed Precip Events Conditions
12:52 AM 25.0 °F - 19.9 °F 81% 30.28 in 10.0 mi Calm Calm - N/A   Clear
1:52 AM 24.1 °F - 19.9 °F 84% 30.29 in 10.0 mi Calm Calm - N/A   Clear
2:52 AM 23.0 °F - 19.9 °F 88% 30.27 in 10.0 mi Calm Calm - N/A   Clear
3:52 AM 23.0 °F - 19.0 °F 85% 30.28 in 10.0 mi Calm Calm - N/A   Clear
4:52 AM 23.0 °F - 19.0 °F 85% 30.29 in 10.0 mi Calm Calm - N/A   Clear
5:52 AM 21.9 °F - 18.0 °F 85% 30.30 in 9.0 mi Calm Calm - N/A   Clear
6:52 AM 21.9 °F - 18.0 °F 85% 30.31 in 10.0 mi Calm Calm - N/A   Clear
7:52 AM 25.0 °F - 21.0 °F 85% 30.30 in 9.0 mi Calm Calm - N/A   Clear
8:52 AM 30.9 °F - 26.1 °F 82% 30.30 in 8.0 mi Calm Calm - N/A   Clear
9:52 AM 37.0 °F - 28.9 °F 73% 30.29 in 10.0 mi Calm Calm - N/A   Clear
10:52 AM 43.0 °F - 28.9 °F 58% 30.26 in 10.0 mi Calm Calm - N/A   Clear
11:52 AM 48.9 °F - 28.0 °F 44% 30.23 in 10.0 mi Calm Calm - N/A   Clear
12:52 PM 54.0 °F - 23.0 °F 30% 30.21 in 10.0 mi Calm Calm - N/A   Clear
1:52 PM 55.9 °F - 25.0 °F 30% 30.19 in 10.0 mi Calm Calm - N/A   Clear
2:52 PM 55.0 °F - 28.0 °F 35% 30.17 in 10.0 mi Calm Calm - N/A   Clear
3:52 PM 46.0 °F - 28.0 °F 50% 30.18 in 10.0 mi Calm Calm - N/A   Clear
4:52 PM 37.9 °F - 28.0 °F 68% 30.19 in 10.0 mi Calm Calm - N/A   Clear
5:52 PM 34.0 °F - 27.0 °F 75% 30.19 in 10.0 mi Calm Calm - N/A   Clear
6:52 PM 32.0 °F - 26.1 °F 79% 30.19 in 10.0 mi Calm Calm - N/A   Clear
7:52 PM 30.0 °F - 25.0 °F 82% 30.19 in 10.0 mi Calm Calm - N/A   Clear
8:52 PM 28.9 °F - 25.0 °F 85% 30.18 in 10.0 mi Calm Calm - N/A   Clear
9:52 PM 30.0 °F - 25.0 °F 82% 30.16 in 10.0 mi Calm Calm - N/A   Clear
10:52 PM 30.0 °F 23.2 °F 25.0 °F 82% 30.14 in 10.0 mi ESE 6.9 mph - N/A   Clear
11:52 PM 30.0 °F 26.5 °F 24.1 °F 79% 30.13 in 10.0 mi ESE 3.5 mph - N/A   Clear